Content
SEND FEEDBACK

Daily
Averages
Monthly
Summary
United States of America

BEDFORD PARK, ILLINOIS


Home > North America > United States > Illinois
Elevation: 623 feet     Latitude: 41 46N     Longitude: 087 45W

WEATHER
 
SELECT A DAY
Number of Records: 189,450;   Date Range: 1/1/95 - 8/28/14
 
SHARE

PRINT THIS DATA

[ ← Previous Day ]
WEATHER ALMANAC - FEBRUARY 28, 2013
[ Next Day → ]
[ °C ]   °F
Weather ElementAverageHighLow
Temperature33 °F35.6 °F (11:23 am)28 °F (11:51 pm)
Dewpoint27.2 °F30.2 °F (1:18 am)21 °F (9:51 pm)
Humidity79.9 %89 % (2:51 am)66 % (6:51 pm)
Barometer29.91 in30.09 in (9:51 pm)29.70 in (1:18 am)
Wind Speed14.5 mph21.9 mph (1:51 pm)
Wind Gust29.9 mph (12:51 pm)
Weather ElementAverage
Visibility7.4 mi
Wind DirectionWNW (297.7 °)

Weather ElementTotal
Precipitation0.02 in
Heating Degree Days33.2 (Base 65)
Averaged from 31 records on February 28, 2013
WEATHER CONDITIONS BREAKOUT
WIND DIRECTION BREAKOUT
WEATHER BY HOUR - FEBRUARY 28, 2013
[ °C ]   °F
Local TimeTemperatureDewpointHumidityBarometerVisibilityWind DirectionWind SpeedGust SpeedPrecipitationEventsConditions
1:18 AM33.8 °F30.2 °F87 %29.70 in2.5 miNW (320°)12.7 mph0.00 inSnowLight Snow
1:46 AM33.8 °F30.2 °F87 %29.71 in3.0 miNW (320°)10.4 mph0.00 inSnowLight Snow
1:51 AM33.8 °F30.2 °F87 %29.71 in4.0 miNW (320°)10.4 mphSnowLight Snow
2:32 AM33.8 °F30.2 °F87 %29.72 in10.0 miNNW (330°)12.7 mph0.00 inSnowLight Snow
2:51 AM33.1 °F30.0 °F89 %29.75 in3.0 miNNW (330°)10.4 mph0.00 inSnowLight Snow
3:49 AM33.8 °F30.2 °F87 %29.75 in1.2 miNNW (330°)10.4 mph0.00 inSnowLight Snow
3:51 AM33.1 °F30.0 °F89 %29.78 in1.2 miNNW (330°)11.5 mph0.00 inSnowLight Snow
4:09 AM33.8 °F30.2 °F87 %29.75 in2.0 miNNW (330°)11.5 mph0.00 inSnowLight Snow
4:39 AM33.8 °F30.2 °F87 %29.76 in4.0 miNNW (330°)10.4 mph0.01 inSnowLight Snow
4:51 AM33.1 °F30.0 °F89 %29.80 in5.0 miNNW (340°)10.4 mph0.01 inSnowLight Snow
5:51 AM33.1 °F30.0 °F89 %29.82 in4.0 miNNW (340°)12.7 mph0.00 inSnowLight Snow
6:51 AM34.0 °F30.0 °F85 %29.84 in9.0 miNNW (330°)11.5 mph0.00 inSnowLight Snow
7:51 AM33.8 °F30.2 °F87 %29.84 in10.0 miNNW (330°)16.1 mphSnowLight Snow
8:51 AM34.0 °F30.0 °F85 %29.90 in4.0 miNNW (340°)15.0 mph0.00 inSnowLight Snow
9:51 AM34.0 °F30.0 °F85 %29.92 in10.0 miNNW (340°)13.8 mph0.00 inSnowLight Snow
10:51 AM35.1 °F30.0 °F82 %29.93 in10.0 miNNW (340°)13.8 mph20.7 mph0.00 inSnowLight Snow
11:23 AM35.6 °F28.4 °F75 %29.90 in10.0 miNorth (360°)16.1 mph25.3 mph0.00 inSnowLight Snow
11:51 AM35.1 °F28.0 °F76 %29.94 in10.0 miNorth (350°)20.7 mph0.00 inSnowLight Snow
12:51 PM35.1 °F27.0 °F72 %29.95 in10.0 miNorth (10°)19.6 mph29.9 mph0.00 inOvercast
1:51 PM35.1 °F27.0 °F72 %29.97 in10.0 miNorth (10°)21.9 mph26.5 mphOvercast
2:51 PM33.8 °F26.6 °F75 %29.96 in10.0 miNorth (10°)17.3 mph23.0 mphOvercast
3:51 PM33.1 °F25.0 °F72 %30.02 in10.0 miNorth (360°)19.6 mph24.2 mphOvercast
4:51 PM33.1 °F25.0 °F72 %30.04 in9.0 miNorth (360°)16.1 mphOvercast
5:51 PM30.9 °F25.0 °F79 %30.06 in10.0 miNorth (360°)17.3 mph23.0 mph0.00 inSnowLight Snow
6:51 PM32.0 °F21.9 °F66 %30.07 in10.0 miNorth (10°)16.1 mph0.00 inOvercast
7:51 PM30.9 °F23.0 °F72 %30.08 in10.0 miNorth (360°)11.5 mph21.9 mphOvercast
8:51 PM30.0 °F21.9 °F72 %30.08 in10.0 miNorth (350°)20.7 mph27.6 mph0.00 inOvercast
9:21 PM30.2 °F21.2 °F69 %30.05 in10.0 miNorth (350°)15.0 mph23.0 mphOvercast
9:51 PM30.0 °F21.0 °F69 %30.09 in10.0 miNorth (360°)16.1 mphOvercast
10:51 PM28.9 °F21.0 °F72 %30.08 in9.0 miNNW (340°)11.5 mph0.00 inSnowLight Snow
11:51 PM28.0 °F21.0 °F75 %30.09 in9.0 miNNW (340°)15.0 mph0.00 inSnowLight Snow
Hourly data recorded from KMDW, located miles away from Bedford Park, Illinois







STORIES FROM OUR PARTNERS